Regional Weather Roundup
Issued by NWS Cleveland, OH

Home | Current Version | Previous Version | Text Only | Print | Product List | Glossary Off
Versions: 1 2 3 4 5 6 7 8 9 10 11 12 13 14 15 16 17 18 19 20 21 22 23 24 25 26 27 28 29 30 31 32 33 34 35 36 37 38 39 40 41 42 43 44 45 46 47 48 49 50

000
ASUS41 KCLE 280710
RWRCLE
OHIO REGIONAL WEATHER ROUNDUP
NATIONAL WEATHER SERVICE CLEVELAND, OH
200 AM EST FRI NOV 28 2014

NOTE: "FAIR" INDICATES FEW OR NO CLOUDS BELOW 12,000 FEET WITH NO
SIGNIFICANT WEATHER AND/OR OBSTRUCTIONS TO VISIBILITY.

OHZ001>008-015>018-024>027-034-035-043-044-280800-
   NORTHWEST OHIO

CITY           SKY/WX    TMP DP  RH WIND       PRES   REMARKS
DEFIANCE       CLOUDY    25  17  72 NW7       30.35S WCI  17
FINDLAY        CLOUDY    26  17  68 NW7       30.32R WCI  18
TOLEDO EXPRESS MOCLDY    21  14  74 NW6       30.33S WCI  13
TOLEDO EXEC    CLEAR     19  12  74 NW8       30.34R WCI   9
LIMA           CLOUDY    26  20  77 W8        30.32S WCI  18
$$

OHZ009>014-019>023-028>033-038-089-280800-
   NORTHEAST OHIO

CITY           SKY/WX    TMP DP  RH WIND       PRES   REMARKS
CLE-HOPKINS    LGT SNOW  26  20  77 NW12      30.29S WCI  16
CLE-LAKEFRONT  LGT SNOW  29  22  75 W22G32    30.27R WCI  15
CUY CO. ARPT   NOT AVBL
LORAIN-ELYRIA  CLOUDY    26  16  65 NW20      30.29R WCI  12
ASHTABULA      CLOUDY    28  16  60 NW10      30.24R WCI  19
AKRON-CANTON   FLURRIES  27  23  85 NW9       30.24R WCI  18
WOOSTER        PTCLDY    24  20  84 NW10      30.27R WCI  14
MANSFIELD      FLURRIES  25  22  88 W7        30.27R WCI  17
YOUNGSTOWN     FLURRIES  25  22  88 W5        30.22R WCI  19
$$

OHZ042-051>053-060>062-070>072-077>081-280800-
  SOUTHWEST OHIO

CITY           SKY/WX    TMP DP  RH WIND       PRES   REMARKS
CINC-COVINGTON MOCLDY    25  15  66 NW5       30.37F WCI  19
CINC-LUNKEN    CLOUDY    28  16  60 W6        30.41F WCI  22
HAMILTON       CLOUDY    28  17  63 W3        30.39F
DAYTON         PTCLDY    23  17  78 W6        30.35F WCI  16
WRIGHT-PAT AFB CLOUDY    25  18  73 W8        30.35F WCI  16
DAYTON GENERAL CLOUDY    26  15  63 NW7       30.35F WCI  18
WILMINGTON     FLURRIES  25  18  74 W9        30.35S WCI  15
$$

OHZ036-037-039>041-045>050-054>059-063>069-073>076-082>088-280800-
  CENTRAL AND SOUTHEAST OHIO

CITY           SKY/WX    TMP DP  RH WIND       PRES   REMARKS
COLUMBUS       CLOUDY    28  20  71 W14       30.32F WCI  17
OSU AIRPORT    CLOUDY    27  20  75 W12G18    30.32S WCI  17
BOLTON FIELD   NOT AVBL
RICKENBACK AFB CLOUDY    27  20  76 W12       30.33F WCI  16
NEWARK         CLOUDY    29  20  69 W13G18    30.31R WCI  19
MARION         CLOUDY    25  19  78 W9        30.31R WCI  15
LANCASTER      CLOUDY    28  20  71 W12       30.33S WCI  18
ZANESVILLE     MOCLDY    27  20  75 W7        30.30R WCI  19
NEW PHILLY     CLOUDY    30  23  75 W7        30.28R WCI  23
$$



USA.gov is the U.S. government's official web portal to all federal, state and local government web resources and services.